sat.trackr.live / text

‹ back to catalog

STARLINK-1871

NORAD 47157 · 2020-088AM

PAYLOAD ACTIVE UNKNOWN

§ Identity

Operator
Country
US
Launch date
2020-11-25
Launch site
AFETR
Launch vehicle
Mass (kg)
RCS (m²)

Purposes: comms

External: N2YO · Heavens-Above · Gunter

§ Orbital elements

Epoch: 2026-09-20T03:46:30.483264Z

Period
93.17 min
Inclination
53.1519°
Eccentricity
0.0001345
Mean motion
15.45585049 rev/d
Perigee alt
428.7 km
Apogee alt
430.6 km
Semi-major
6,807.8 km
B*
6.7513e-4
RAAN
103.7950°
Arg perigee
150.7168°
Mean anomaly
209.3915°
Rev number
32,182

§ Raw data

STARLINK-18711 47157U 20088AM  26263.15729726  .00032703  00000+0  67513-3 0  99992 47157  53.1519 103.7950 0001345 150.7168 209.3915 15.45585049321827

JSON: /api/v1/satellites/47157 · /tle

For live sub-satellite position, see the globe view (requires WebGL).

§ Visibility from observer

Set your observer location to see the next 7 days of passes ≥ 10°. The values pass through the URL so the page stays shareable.

No JS? Fill the form by hand. The geolocation button needs JavaScript.